Regional Weather Roundup
Issued by NWS Kansas City/Pleasant Hill, MO

Home | Current Version | Previous Version | Graphics & Text | Print | Product List | Glossary Off
Versions: 1 2 3 4 5 6 7 8 9 10 11 12 13 14 15 16 17 18 19 20 21 22 23 24 25 26 27

000
ASUS43 KEAX 240510
RWREAX

WEATHER ROUNDUP FOR EASTERN KANSAS AND NORTHWEST MISSOURI
NATIONAL WEATHER SERVICE KANSAS CITY/PLEASANT HILL MO
1200 AM CDT TUE APR 24 2018

KSZ040-057-103>105-MOZ028-029-037-043-240600-
...KANSAS CITY METROPOLITAN AREA...

CITY           SKY/WX    TMP DP  RH WIND       PRES   REMARKS
K.C. INTL      CLEAR     58  31  35 NE3       30.06R
K.C. DOWNTOWN  CLEAR     56  35  45 NW3       30.04S
LEES SUMMIT    CLEAR     59  32  36 CALM      30.05R
OLATHE - IXD   CLEAR     54  34  46 CALM      30.06R
OLATHE - OJC   CLEAR     59  32  36 NE5       30.05R
LAWRENCE       CLEAR     48  36  63 CALM      30.05R

$$

MOZ001>008-011>017-020>025-030>033-038>040-044>046-053-054-240600-
...NORTHERN AND CENTRAL MISSOURI...

CITY           SKY/WX    TMP DP  RH WIND       PRES   REMARKS
ST. JOSEPH     CLEAR     50  34  54 CALM      30.06S
MOSBY          CLEAR     46  37  71 CALM      30.05S
WARRENSBURG    CLEAR     55  32  41 N5        30.03S
WHITEMAN AFB   PTCLDY    52  35  51 N5        29.99S
CLINTON        CLEAR     50  37  62 N6        30.03S
SEDALIA        CLOUDY    57  37  47 N6        30.02F
WARSAW         NOT AVBL
CHILLICOTHE      N/A     50  31  48 N3        30.06S
KIRKSVILLE     PTCLDY    52  32  46 N6        30.05S

$$

MOZ041-047>049-056>058-063>065-088>090-097-240600-
...EASTERN AND SOUTHERN MISSOURI...

CITY           SKY/WX    TMP DP  RH WIND       PRES   REMARKS
ST. LOUIS INTL CLOUDY    57  55  93 NE8       29.99F
SPIRIT OF STL  CLOUDY    58  54  86 NE6       29.98F
COLUMBIA       CLEAR     58  47  66 E7        30.01S
JEFFERSON CITY MOCLDY    62  51  67 E7        30.01S
ROLLA          CLOUDY    56  51  84 NE3       30.01R
SPRINGFIELD    CLEAR     51  43  74 CALM      30.01R
BRANSON        PTCLDY    54  50  87 CALM      30.01S
JOPLIN         CLEAR     52  45  77 CALM      30.03S
WEST PLAINS    CLOUDY    56  52  86 CALM      29.98F

$$

IAZ060-094-KSZ022-034>040-054-083-096-NEZ052-066-093-240600-
...KANSAS...SOUTHEAST NEBRASKA AND IOWA...

CITY           SKY/WX    TMP DP  RH WIND       PRES   REMARKS
TOPEKA         CLEAR     54  38  54 CALM      30.05R
MANHATTAN      CLEAR     46  37  71 CALM      30.06S
EMPORIA        CLEAR     55  36  48 NW3       30.04S
CHANUTE        CLEAR     49  40  71 E3        30.04F
WICHITA        PTCLDY    57  45  64 NW6       30.05F
OMAHA          CLOUDY    54  31  41 CALM      30.10R
LINCOLN        CLOUDY    51  31  46 N5        30.11R
FALLS CITY     CLEAR     57  29  34 NE5       30.06S
LAMONI         CLEAR     55  29  36 N5        30.07S
DES MOINES     CLEAR     57  31  37 NE7       30.10R

$$





USA.gov is the U.S. government's official web portal to all federal, state and local government web resources and services.